HRC MONOBLOCK CAMERA

Last updated on Mon Sep 21 2026 00:02:05 GMT+0000 (Coordinated Universal Time)

1 66052U 98067XR 26263.39380414 .00263314 39002-4 59377-3 0 9991 2 66052 51.6132 143.4577 0004938 186.6957 173.3987 15.97139539 53082
UTC large
Height (km)
Speed (km/s)
/
Latitude / Longitude
Inclination (degrees)
Orbital Period (minutes)
Azimuth
Elevation
Range (km)
Doppler Factor

Next 0 passes for location: London (51.5072 / 0.1276)

No passes found over London.
HRC MONOBLOCK CAMERA